Regional Weather Roundup
Issued by NWS

Home | Current Version | Previous Version | Text Only | Print | Product List | Glossary Off
Versions: 1 2 3 4 5 6 7 8 9 10 11 12 13 14 15 16 17 18 19 20 21 22 23 24 25 26 27 28 29 30 31 32 33 34 35 36 37 38 39 40 41 42 43 44 45 46 47 48 49 50

000
ASUS43 KOAX 280710
RWRNE

WEATHER ROUNDUP FOR NEBRASKA
NATIONAL WEATHER SERVICE OMAHA NE
200 AM CDT THU AUG 28 2014

NOTES: SATELLITE DATA IS BEING USED TO AUGMENT CLOUD COVER ABOVE
       12000 FEET.
       "FAIR" INDICATES FEW OR NO CLOUDS BELOW 12,000 FEET WITH NO
       SIGNIFICANT WEATHER AND/OR OBSTRUCTIONS TO VISIBILITY.

  * THESE STATIONS DO NOT REPORT WEATHER SUCH AS RAIN...SNOW OR FOG.

NEZ001>004-019>022-054>056-280800-
NEBRASKA PANHANDLE

CITY           SKY/WX    TMP DP  RH WIND       PRES   REMARKS
SCOTTSBLUFF    CLOUDY    62  61  96 CALM      30.06F
ALLIANCE       CLOUDY    62  61  96 W8        30.04F
CHADRON        CLOUDY    64  62  93 CALM      30.01F
KIMBALL        CLOUDY    58  57  96 SW5       30.11F
SIDNEY         CLOUDY    63  61  93 SW7       30.09F
$$

NEZ057>060-069>072-079>082-280800-
SOUTHWEST NEBRASKA

CITY           SKY/WX    TMP DP  RH WIND       PRES   REMARKS
NORTH PLATTE   TSTM      65  63  93 NW9       29.99S FOG
IMPERIAL       LGT RAIN  62  60  93 CALM      30.02S
LEXINGTON      CLOUDY    68  67  95 SE10      29.99S
MCCOOK         LGT RAIN  63  62  97 CALM      30.00F FOG
OGALLALA       RAIN      60  59  98 E5        29.99F
$$

NEZ005>010-023>029-035>040-094-280800-
NORTH CENTRAL NEBRASKA

CITY           SKY/WX    TMP DP  RH WIND       PRES   REMARKS
VALENTINE      CLOUDY    68  67  96 E9        29.98F FOG
AINSWORTH      CLOUDY    67  67 100 SE6       29.99F FOG
BROKEN BOW     HVY RAIN  69  68  96 SE15G23   29.98F FOG
O`NEILL        CLOUDY    69  69  99 SE7       30.00F FOG
ORD            LGT RAIN  71  69  93 SE5       29.97F
THEDFORD       CLOUDY    68  67  96 CALM      30.00S
$$

NEZ041-046>049-061>064-073>077-083>087-280800-
SOUTH CENTRAL NEBRASKA

CITY           SKY/WX    TMP DP  RH WIND       PRES   REMARKS
GRAND ISLAND   RAIN      71  68  90 S15       30.00F FOG
AURORA         RAIN      70  70 100 S14       30.00F
HASTINGS       LGT RAIN  68  65  90 S9        30.00S
HEBRON         TSTM      72  67  85 W7        29.99R
HOLDREGE       TSTM      68  66  93 CALM      29.97F
KEARNEY *      CLOUDY    68  66  94 CALM      29.98F
YORK           LGT RAIN  70 N/A N/A SE9       30.01F
$$

NEZ011>018-030>034-042>045-280800-
NORTHEAST NEBRASKA

CITY           SKY/WX    TMP DP  RH WIND       PRES   REMARKS
NORFOLK        LGT RAIN  69  67  93 E8        30.00F
ALBION         HVY RAIN  69  67  94 SE9       30.01S
BLAIR          CLOUDY    71  68  92 E3        30.04F
FREMONT        LGT RAIN  71  69  94 E8        30.02F
TEKAMAH        CLOUDY    70  68  93 E6        30.03F
WAYNE          RAIN      69  68  96 SE9       30.02F
$$

NEZ050>053-065>068-078-088>093-280800-
SOUTHEAST NEBRASKA

CITY           SKY/WX    TMP DP  RH WIND       PRES   REMARKS
LINCOLN        TSTM      70  68  93 E14       30.00F FOG
OMAHA EPPLEY   LGT RAIN  72  68  87 SE9       30.03F
BEATRICE       TSTM      72  72  98 E3        29.98F
FALLS CITY     HVY RAIN  71  69  93 SE21G29   29.97F FOG
NEBRASKA CITY  RAIN      69  69 100 CALM      30.03S
PLATTSMOUTH    LGT RAIN  71  69  92 CALM      30.02F
$$

NEZ044-045-051>053-067-280800-
OMAHA AREA

CITY           SKY/WX    TMP DP  RH WIND       PRES   REMARKS
OMAHA EPPLEY   LGT RAIN  72  68  87 SE9       30.03F
BLAIR          CLOUDY    71  68  92 E3        30.04F
FREMONT        LGT RAIN  71  69  94 E8        30.02F
MILLARD        LGT RAIN  72  70  93 CALM      30.03S
OFFUTT AFB     LGT RAIN  72  72 100 NE5       30.02F
PLATTSMOUTH    LGT RAIN  71  69  92 CALM      30.02F
WAHOO          LGT RAIN  70  67  90 E7        30.01F
$$


USA.gov is the U.S. government's official web portal to all federal, state and local government web resources and services.